7 * 24
多渠道服务支持
STARLINK-3103是美国太空探索技术公司(SpaceX)星链(Starlink)互联网星座中的一颗卫星,于2021年9月14日发射入轨,属于星链项目扩容阶段的发射任务,主要为全球提供高速低延迟卫星互联网服务,尤其覆盖偏远地区、海洋等地面网络难以抵达的区域,支撑星链星座的全球组网与服务能力,是SpaceX推进卫星互联网布局的重要组成部分。
美国
(US)
| 数据来源 | 国际轨道数据 |
| 星历时间: | 2026-09-05T02:37:48+0800 9小时前 查看轨道信息 |
| 半长轴: | 6950.186km |
| 偏心率: | 0.0002956 |
| 轨道倾角: | 70.000° |
| 近地点辐角 | 271.643° |
| 升交点赤经 | 162.919° |
| 平近点角 | 88.439° |
| 近地点: | 569.994km |
| 远地点: | 574.104km |
| 周期: | 96.107分钟 |
| 每日圈数: | 14.983324 |
| 事件ID | 空间交会对象 | 最接近时刻(TCA) | 交会距离 | 交会风险概率(CRP) | 交会风险指数(CRI) | 操作 |
|---|---|---|---|---|---|---|
| CDM_260905-084403-976904-917725 |
RISING 2
(39769)
STARLINK-3103
(49177) | 2026-09-05T 08:44:58+0000 |
2.193 km
极远距离 | 2.277333E-6 低风险 | 0.42 | |
| CDM_260906-133202-794204-917723 |
UK-DMC
(27942)
STARLINK-3103
(49177) | 2026-09-06T 13:32:30+0000 |
2.331 km
极远距离 | 1.578698E-6 低风险 | 0.39 |